伽利略0103星导航星座 (GSAT0103 (GALILEO-FM3))

导读 | 豆包AI

GALILEO-FM3是欧洲空间局(ESA)伽利略全球卫星导航系统的一颗卫星,于2012年10月12日发射,是伽利略系统部署过程中的重要组成部分。它承担着导航、定位与授时服务相关任务,助力伽利略系统逐步组网,提升全球覆盖能力与服务精度,推动欧洲自主卫星导航体系建设。

基本信息
目录编号:
38857
目录名称:
GALILEO-FM3
国际标识:
2012-055A
轨道中心:
EARTH
卫星名称:
伽利略0103星
卫星全名:
伽利略0103星导航星座 (GSAT0103 (GALILEO-FM3))
卫星状态:
在轨 (已飞行4901 天)
发射日期:
2012-10-12 UTC
国别 :
(ESA)
星等 :
--
轨道信息
数据来源 国际轨道数据
星历时间: 2026-03-11T06:17:59+0800
3天前
查看轨道信息
半长轴: 29600.378km
偏心率: 0.000557
轨道倾角: 55.744°
近地点辐角 286.122°
升交点赤经 104.241°
平近点角 73.883°
近地点: 23205.753km
远地点: 23238.729km
周期: 844.706分钟
每日圈数: 1.704735
详细信息
平衡模式:
三轴稳定
覆盖范围:
全球
运营商:
欧盟空间计划局
运营商所在国:
法国大都会
使用方式:
暂无
卫星简介
伽利略定位系统(Galileo)是一个全球导航卫星系统,于2016年投入使用由欧盟通过ESA创建,由欧盟空间计划局(EUSPA)运营。该系统有两个地面操控站,并且在高纬度地区提供比其他系统更好的定位服务。该卫星仍在工作。
2D轨道图
3D轨道图
轨道高度分析图
轨道倾角分析图
轨道综合分析图
查看轨道综合分析图